www.pogodaiklimat.ru

Погода и климат >> Архив погоды >> Россия >> Кемеровская область >> Тайга


ПОГОДА в Тайге

  • Прогноз погоды в Тайге
  • Монитор погоды в Тайге

АРХИВ ПОГОДЫ в Тайге

Время (UTC), дата Ветер
(напр.,м/с)
 
Видим.   Явления Облачность Т
(С)
Тd
(С)
f
(%)
Тe
(С)
Тes
(С)
Комфортность P
(гПа)
Po
(гПа)
Тmin
(С)
Tmax
(С)
R
(мм)
R24
(мм)
S
(см)
15 14.07 С 2 20 км 3/0
[Ci fib]
+19.3 +11.6 61 +21 +21 комфорт 1014.4 985.3
18 14.07 С 2 10 км 1/0
[Ci fib]
+15.8 +12.0 78 +16 +16 1013.4 984.0
21 14.07 С 2 10 км 1/0
[Ci fib]
+12.3 +10.0 86 +11 +11 1013.8 984.0
00 15.07 С 2 20 км ясно +15.0 +10.5 74 +15 +16 1012.0 982.5 +11.0
03 15.07 СВ 3 20 км 1/1
[Cu med, cong]
+19.0 +10.3 57 +20 +27 1011.8 982.7
06 15.07 С 5-10
{11}
20 км 6/6 720 м
[Cu med, cong]
+22.0 +10.0 46 +24 +27 комфорт 1009.8 981.0
09 15.07 СВ 4
{12}
20 км 8/8 720 м
[Cu med, cong]
+20.9 +9.5 48 +23 +25 комфорт 1010.1 981.3
12 15.07 С 5 20 км 8/5 700 м
[Cb calv]
+21.4 +11.0 51 +23 +24 комфорт 1009.7 980.9 +22.0
15 15.07 С 1 10 км 6 баллов +16.0 +13.8 87 +17 +17 1010.6 981.3
18 15.07 штиль 0 10 км {ливн. осадки} 6/4 600 м
[Sc Ci fib]
+13.6 +13.1 97 +13 +13 1010.9 981.3
21 15.07 С 1 10 км 10/10 660 м
[Cb calv]
+13.8 +13.6 99 +14 +14 1009.5 980.0
00 16.07 штиль 0 20 км 10/10 700 м
[Cb cap]
+15.3 +14.3 94 +15 +15 1007.5 978.2 +12.2 0.0
03 16.07 С 1 20 км в посл. час ливневой дождь 10/10 660 м
[Cb calv]
+16.6 +15.0 90 +17 +17 1006.3 977.2
06 16.07 СЗ 1 20 км {ливн. осадки} 10/10 600 м
[Cb calv]
+16.8 +15.7 93 +18 +18 1006.4 977.3
09 16.07 В 1 20 км 10/10 600 м
[Cb calv]
+17.7 +15.1 85 +19 +19 1006.3 977.3
12 16.07 штиль 0 20 км гроза без осадков 10/8 570 м
[Cb cap Ac trans Ci fib]
+19.1 +15.0 77 +20 +21 1004.3 975.5 +19.1 0.4
15 16.07 В 1 4000 м дымка {гроза, ливн. осадки} 10/5 600 м
[Cb calv Ac lent Cc]
+14.5 +14.5 100 +15 +15 1005.3 976.0
18 16.07 ЮВ 1 4000 м дымка {гроза, ливн. осадки} 10/5 600 м
[Cb calv Ac trans Ci fib]
+14.0 +14.0 100 +14 +14 1005.3 976.0
21 16.07 ЮВ 2 4000 м слаб. ливневой дождь 10/10 700 м
[Cb calv]
+14.6 +14.6 100 +14 +14 1003.8 974.6
00 17.07 штиль 0 4000 м слаб. ливневой дождь 10/10 660 м
[Cb calv]
+14.5 +14.5 100 +14 +14 1003.9 974.6 +13.3 9
03 17.07 В 2 10 км в посл. час ливневой дождь 10/10 600 м
[Cb calv]
+15.4 +15.1 98 +15 +15 1004.1 974.9
06 17.07 ЮВ 4 10 км слаб. ливневой дождь 10/10 660 м
[Cb calv]
+18.5 +15.9 85 +19 +19 1003.7 974.9
09 17.07 ЮВ 3 10 км в посл. час ливневой дождь 10/10 700 м
[Cb calv]
+17.8 +17.0 95 +18 +18 1004.1 975.2
12 17.07 В 2 10 км {ливн. осадки} 10/8 630 м
[Cb calv Ac trans Ci sp]
+18.1 +17.1 94 +19 +19 1004.4 975.5 +19.9 3
15 17.07 В 2 10 км 10/8 700 м
[Cb calv Ac trans Ci fib]
+17.1 +16.8 98 +17 +17 1006.3 977.3
18 17.07 штиль 0 1000 м дымка 6/0
[Ci fib]
+12.8 +12.8 100 +12 +12 1006.8 977.3
21 17.07 штиль 0 200 м туман 3/0
[Ci fib]
+12.3 +12.3 100 +12 +12 1005.5 976.0
00 18.07 ЮВ 2 200 м туман 10/0
[Ci fib]
+14.5 +14.5 100 +14 +15 1004.9 975.6 +11.2
03 18.07 штиль 0 4000 м дымка 8/6 600 м
[Sc Ci fib]
+17.8 +17.8 100 +18 +22 1004.3 975.4
06 18.07 ЮЗ 1 20 км {туман} 9/8 660 м
[Cb calv Ci fib]
+22.8 +14.1 58 +26 +29 жарко 1003.4 974.9
09 18.07 В 2 20 км 10/9 700 м
[Cb calv Ci fib]
+22.5 +15.1 63 +26 +26 жарко 1004.5 976.0
12 18.07 штиль 0 20 км 10/6 720 м
[Cb calv Ac trans Ci fib]
+20.9 +15.7 72 +24 +25 комфорт 1003.9 975.3 +23.6
15 18.07 штиль 0 20 км 9 баллов +17.5 +17.0 97 +17 +17 1006.3 977.3
18 18.07 штиль 0 10 км 10/10 660 м
[Sc]
+14.4 +14.4 100 +14 +14 1006.6 977.3
21 18.07 штиль 0 4000 м дымка 8/8 700 м
[Sc]
+13.6 +13.6 100 +13 +13 1005.0 975.6
00 19.07 штиль 0 200 м туман 10/0
[Ci fib]
+15.3 +15.3 100 +15 +16 1005.6 976.4 +13.2
03 19.07 штиль 0 500 м туман 10/10 480 м
[St]
+17.3 +17.3 100 +17 +17 1005.5 976.5
06 19.07 штиль 0 10 км {туман} 10/10 500 м
[St]
+18.9 +17.7 93 +20 +20 1006.1 977.3
09 19.07 В 2 20 км 9 баллов +23.5 +15.3 60 +26 +28 жарко 1005.7 977.3
12 19.07 В 2 20 км 4/4 600 м
[Cu med, cong]
+23.9 +14.1 54 +26 +28 жарко 1005.5 977.1 +24.2
15 19.07 штиль 0 20 км 6 баллов +17.4 +15.9 91 +17 +17 1007.8 978.7
18 19.07 штиль 0 10 км 7 баллов +16.1 +16.1 100 +16 +16 1007.9 978.7
21 19.07 штиль 0 10 км 2 балла +13.8 +13.8 100 +13 +13 1008.1 978.7
00 20.07 С 2 20 км 10/10 420 м
[St]
+16.6 +16.6 100 +17 +17 1007.7 978.6 +13.3
03 20.07 СВ 3 4000 м дымка {туман} 10/10 400 м
[St]
+18.4 +17.3 93 +19 +19 1008.0 979.0
06 20.07 СВ 4 20 км 4 балла +23.0 +10.4 45 +25 +31 комфорт 1008.6 980.0
09 20.07 СВ 3 20 км 6 баллов +23.0 +10.1 44 +25 +28 комфорт 1008.6 980.0
12 20.07 СВ 3 20 км 1/1 600 м
[Cu med, cong]
+21.4 +11.2 52 +23 +25 комфорт 1008.1 979.4 +23.7
15 20.07 СВ 2 4000 м дымка 8/8 720 м
[Cb calv]
+16.8 +12.1 74 +17 +17 1009.5 980.3
18 20.07 СВ 2 4000 м дымка 6/6 750 м
[Cb calv]
+12.7 +10.3 85 +12 +12 1009.6 979.9
21 20.07 С 1 4000 м дымка 6/6 720 м
[Cb calv]
+9.0 +8.9 99 +8 +8 1009.3 979.3
00 21.07 С 2 4000 м дымка 8/8 720 м
[Cb calv]
+10.6 +9.8 95 +9 +9 1009.2 979.3 +8.9
03 21.07 В 2 4000 м мгла 2 балла +13.5 +7.9 69 +13 +20 1009.6 980.0
06 21.07 З 3 4000 м мгла 2 балла +17.2 +8.3 56 +17 +27 1007.9 978.7
09 21.07 З 2 4000 м мгла 7 баллов +19.2 +8.8 51 +21 +24 комфорт 1007.6 978.7
12 21.07 штиль 0 4000 м мгла 10/10 750 м
[Sc]
+16.0 +9.9 67 +16 +16 1007.1 977.9 +19.2

 

Местоположение метеостанции Тайга (Кемеровская область, Россия): широта 56.07 долгота 85.62 высота над уровнем моря 251 м.

В архиве по умолчанию представлена погода в Тайге за последнюю неделю. Архивные данные за месяц целиком и за предыдущие месяцы, начиная с января 2011 года, Вы можете получить, выбрав интересующий диапазон дат из раскрывающегося списка и нажав кнопку "Ввод!".


*Определитесь, кто Вы:
робот инопланетянин человек

Внимание! Время в таблицах - всемирное. Для получения местного времени необходимо прибавить поправку, которая равна 7 ч.

Смотрите также архив погоды в соседних городах и на ближайших метеорологических станциях:

Погода в Яе (Кемеровская область, Россия) (55 км)
Погода в Барзасе (Кемеровская область, Россия) (58 км)
Погода в Томске (Томская область, Россия) (64 км)
Погода в Юрге (Кемеровская область, Россия) (65 км)
Погода в Кемерово АМС (Кемеровская область, Россия) (83 км)
Погода в Болотном (Новосибирская область, Россия) (88 км)
Погода в Топках (Кемеровская область, Россия) (89 км)
Погода в Кемерово (Кемеровская область, Россия) (99 км)
Погода в Кожевниково (Томская область, Россия) (104 км)
Погода в Первомайском (Томская область, Россия) (117 км)

Пояснения к столбцам:

Ветер - указаны скорость ветра в м/с - средняя за 10 мин, порывы в срок и между сроками (в фигурных скобках) и направление, откуда дует ветер: С - северный, СВ - северо-восточный, В - восточный, ЮВ - юго-восточный, Ю - южный, ЮЗ - юго-западный, З - западный, СЗ - северо-западный.
Видимость - горизонтальная дальность видимости в метрах или километрах. При видимости от 1 до 10 км при отсутствии осадков обычно наблюдается дымка, при ухудшении видимости до 1 км и менее - туман. В сухую погоду видимость может ухудшаться дымом, пылью или мглою.
Явления - указаны атмосферные явления, наблюдавшиеся в срок или в последний час перед сроком; фигурными скобками обозначены явления, наблюдавшиеся между сроками (за 1-3 часа до срока); квадратными скобками обозначены град или гололедные отложения с указанием их диаметра в мм.
Облачность - указаны через наклонную черту общая и нижняя облачность в баллах и высота нижней границы облаков в метрах; квадратными скобками обозначены формы облаков: Ci - перистые, Cs - перисто-слоистые, Cc - перисто-кучевые, Ac - высококучевые, As - высокослоистые, Sc - слоисто-кучевые, Ns - слоисто-дождевые, Cu - кучевые, Cb - кучево-дождевые. Подробнее классификацию облаков см. в Атласе облаков (PDF).
T - Температура воздуха - температура, измеренная на высоте 2 м над землей.
Td - Температура точки росы - температура, при понижении до которой содержащийся в воздухе водяной пар достигнет насыщения.
f - Относительная влажность воздуха - влажноcть воздуха, измеренная на высоте 2 м над землей.
Te - Эффективная температура - температура, которую ощущает одетый по сезону человек в тени. Характеристика душности погоды. При расчете учитывается влияние влажности воздуха и скорости ветра на теплоощущения человека.
Tes - Эффективная температура на солнце - температура, которую ощущает человек, с поправкой на солнечный нагрев. Характеристика знойности погоды. Зависит от высоты солнца над горизонтом, облачности и скорости ветра. Ночью, в пасмурную погоду, а также при ветре 12 м/с и более поправка равна нулю.
P - Атмосферное давление - приведенное к уровню моря атмосферное давление.
Po - Атмосферное давление - измеренное на уровне метеостанции атмосферное давление.
Tmin - Минимальная температура - минимум температуры воздуха на высоте 2 м над землей.
Tmax - Максимальная температура - максимум температуры воздуха на высоте 2 м над землей.
R - Количество осадков - Количество выпавших осадков за период времени, мм. При наведении курсора мыши на число - период времени, за который выпало указанное количество осадков.
R24 - Количество осадков - Количество выпавших осадков за 24 часа, мм.
S - Снежный покров - Высота снежного покрова, см. При наведении курсора мыши на число - состояние снежного покрова и степень покрытия местности в баллах.